Location: Albany
(35.0170°S, 117.8920°E)
Time: 01:46:59
(UTC+08:00)

Explorer 7 - Pass Details

Date: 31 January 2021
Orbit: 484 x 677 km, 50.3° (Epoch: 01 March)

Event Time Altitude Azimuth Distance (km) Brightness Sun altitude
Rises 22:03:54 0° 252° (WSW) 2,874 11.3 -28.4°
Reaches altitude 10° 22:07:50 10° 285° (WNW) 1,903 9.8 -28.8°
Enters shadow 22:08:11 11° 290° (WNW) 1,860 9.7 -28.9°
Maximum altitude 22:09:11 11° 304° (NW) 1,795 - -29.0°
Drops below altitude 10° 22:10:32 10° 322° (NW) 1,856 - -29.2°
Sets 22:14:13 0° 357° (N) 2,684 - -29.6°
